QPF
0.00 0.00 0.00 0.00 0.00 0.00 0.00 0.00 0.00 0.00 0.00 0.00 0.00 0.00 0.00 0.00 0.00 0.00 0.00 0.00 0.00 0.00 0.00 0.00 0.00 0.00 0.00 0.00 0.00 0.00 0.00 0.00 0.00 0.00 0.00 0.00 0.00 0.00 0.00 0.00 0.00 0.00 0.00 0.00
0.00 0.00 0.00 0.00 0.00 0.00 0.00 0.00 0.00 0.00 0.00 0.00 0.00 0.00 0.00 0.00 0.00 0.00 0.00 0.00 0.00 0.00 0.00 0.00 0.00 0.00 0.00 0.00 0.00 0.00 0.00 0.00 0.00 0.00 0.00 0.00 0.00 0.00 0.00 0.00 0.00 0.00 0.00 0.00
0.00 0.00 0.00 0.00 0.00 0.00 0.00 0.00 0.00 0.00 0.00 0.00 0.00 0.00 0.00 0.00 0.00 0.00 0.00 0.00 0.00 0.00 0.00 0.00 0.00 0.00 0.00 0.00 0.00 0.00 0.00 0.00 0.00 0.00 0.00 0.00 0.00 0.00 0.00 0.00 0.00 0.00 0.00 0.00
0.00 0.00 0.00 0.00 0.00 0.00 0.00 0.00 0.00 0.00 0.00 0.00 0.00 0.00 0.00 0.00 0.00 0.00 0.00 0.00 0.00 0.00 0.00 0.00 0.00 0.00 0.00 0.00 0.00 0.00 0.00 0.00 0.00 0.00 0.00 0.00 0.00 0.00 0.00 0.00 0.00 0.00 0.00 0.00
0.00 0.00 0.00 0.00 0.00 0.00 0.00 0.00 0.00 0.00 0.00 0.00 0.00 0.00 0.00 0.00 0.00 0.00 0.00 0.00 0.00 0.00 0.00 0.00 0.00 0.00 0.00 0.00 0.00 0.00 0.00 0.00 0.00 0.00 0.00 0.00 0.00 0.00 0.00 0.00 0.00 0.00 0.00 0.00
0.00 0.00 0.00 0.00 0.00 0.00 0.00 0.00 0.00 0.00 0.00 0.00 0.00 0.00 0.00 0.00 0.00 0.00 0.00 0.00 0.00 0.00 0.00 0.00 0.00 0.00 0.00 0.00 0.00 0.00 0.00 0.00 0.00 0.00 0.00 0.00 0.00 0.00 0.00 0.00 0.00 0.00 0.00 0.00
0.00 0.00 0.00 0.00 0.00 0.00 0.00 0.00 0.00 0.00 0.00 0.00 0.00 0.00 0.00 0.00 0.00 0.00 0.00 0.00 0.00 0.00 0.00 0.00 0.00 0.00 0.00 0.00 0.00 0.00 0.00 0.00 0.00 0.00 0.00 0.00 0.00 0.00 0.00 0.00 0.00 0.00 0.00 0.00
0.00 0.00 0.00 0.00 0.00 0.00 0.00 0.00 0.00 0.00 0.00 0.00 0.00 0.00 0.00 0.00 0.00 0.00 0.00 0.00 0.00 0.00 0.00 0.00 0.00 0.00 0.00 0.00 0.00 0.00 0.00 0.00 0.00 0.00 0.00 0.00 0.00 0.00 0.00 0.00 0.00 0.00 0.00 0.00
0.00 0.00 0.00 0.00 0.00 0.00 0.00 0.00 0.00 0.00 0.00 0.00 0.00 0.00 0.00 0.00 0.00 0.00 0.00 0.00 0.00 0.00 0.00 0.00 0.00 0.00 0.00 0.00 0.00 0.00 0.00 0.00 0.00 0.00 0.00 0.00 0.00 0.00 0.00 0.00 0.00 0.00 0.00 0.00
0.00 0.00 0.00 0.00 0.00 0.00 0.00 0.00 0.00 0.00 0.00 0.00 0.00 0.00 0.00 0.00 0.00 0.00 0.00 0.00 0.00 0.00 0.00 0.00 0.00 0.00 0.00 0.00 0.00 0.00 0.00 0.00 0.00 0.00 0.00 0.00 0.00 0.00 0.00 0.00 0.01 0.01 0.01 0.01
0.00 0.00 0.00 0.00 0.00 0.00 0.00 0.00 0.00 0.00 0.00 0.00 0.00 0.00 0.00 0.00 0.00 0.00 0.00 0.00 0.00 0.00 0.00 0.00 0.00 0.00 0.00 0.00 0.00 0.00 0.00 0.00 0.00 0.00 0.00 0.00 0.00 0.00 0.00 0.01 0.01 0.01 0.02 0.01
0.00 0.00 0.00 0.00 0.00 0.00 0.00 0.00 0.00 0.00 0.00 0.00 0.00 0.00 0.00 0.00 0.00 0.00 0.00 0.00 0.00 0.00 0.00 0.00 0.00 0.00 0.00 0.00 0.00 0.00 0.00 0.00 0.00 0.00 0.00 0.00 0.00 0.01 0.00 0.01 0.01 0.01 0.02 0.02
0.00 0.00 0.00 0.00 0.00 0.00 0.00 0.00 0.00 0.00 0.00 0.00 0.00 0.00 0.00 0.00 0.00 0.00 0.00 0.00 0.00 0.00 0.00 0.00 0.00 0.00 0.00 0.00 0.00 0.00 0.00 0.00 0.00 0.00 0.01 0.01 0.01 0.01 0.01 0.01 0.01 0.01 0.01 0.02
0.00 0.00 0.00 0.00 0.00 0.00 0.00 0.00 0.00 0.00 0.00 0.00 0.00 0.00 0.00 0.00 0.00 0.00 0.00 0.00 0.00 0.00 0.00 0.00 0.00 0.00 0.00 0.00 0.00 0.00 0.00 0.00 0.01 0.01 0.01 0.01 0.01 0.02 0.02 0.02 0.02 0.01 0.01 0.01
0.00 0.00 0.00 0.00 0.00 0.00 0.00 0.00 0.00 0.00 0.00 0.00 0.00 0.00 0.00 0.00 0.00 0.00 0.00 0.00 0.00 0.00 0.00 0.00 0.00 0.00 0.00 0.00 0.00 0.00 0.00 0.00 0.00 0.01 0.01 0.01 0.01 0.02 0.02 0.02 0.02 0.01 0.01 0.01
0.00 0.00 0.00 0.00 0.00 0.00 0.00 0.00 0.00 0.00 0.00 0.00 0.00 0.00 0.00 0.00 0.00 0.00 0.00 0.00 0.00 0.00 0.00 0.00 0.00 0.00 0.00 0.00 0.00 0.00 0.00 0.01 0.01 0.01 0.01 0.01 0.02 0.02 0.02 0.02 0.02 0.02 0.02 0.02
0.00 0.00 0.00 0.00 0.00 0.00 0.00 0.00 0.00 0.00 0.00 0.00 0.00 0.00 0.00 0.00 0.00 0.00 0.00 0.00 0.00 0.00 0.00 0.00 0.00 0.00 0.00 0.00 0.00 0.00 0.00 0.01 0.01 0.01 0.01 0.02 0.02 0.02 0.02 0.03 0.03 0.03 0.02 0.02
0.00 0.00 0.00 0.00 0.00 0.00 0.00 0.00 0.00 0.00 0.00 0.00 0.00 0.00 0.00 0.00 0.00 0.00 0.00 0.00 0.00 0.00 0.00 0.00 0.00 0.00 0.00 0.00 0.00 0.00 0.01 0.01 0.01 0.01 0.02 0.02 0.02 0.03 0.03 0.04 0.04 0.03 0.02 0.02
0.00 0.00 0.00 0.00 0.00 0.00 0.00 0.00 0.00 0.00 0.00 0.00 0.00 0.00 0.00 0.00 0.00 0.00 0.00 0.00 0.00 0.00 0.00 0.00 0.00 0.00 0.00 0.00 0.00 0.00 0.01 0.01 0.02 0.02 0.02 0.03 0.03 0.02 0.03 0.04 0.03 0.03 0.03 0.03
0.00 0.00 0.00 0.00 0.00 0.00 0.00 0.00 0.00 0.00 0.00 0.00 0.00 0.00 0.00 0.00 0.00 0.00 0.00 0.00 0.00 0.00 0.00 0.00 0.00 0.00 0.00 0.00 0.01 0.01 0.01 0.02 0.02 0.02 0.02 0.03 0.03 0.03 0.03 0.03 0.03 0.03 0.03 0.03
0.00 0.00 0.00 0.00 0.00 0.00 0.00 0.00 0.00 0.00 0.00 0.00 0.00 0.00 0.00 0.00 0.00 0.00 0.00 0.00 0.00 0.00 0.00 0.00 0.00 0.00 0.00 0.01 0.01 0.01 0.02 0.02 0.02 0.02 0.03 0.04 0.04 0.04 0.03 0.03 0.03 0.03 0.03 0.02
0.00 0.00 0.00 0.00 0.00 0.00 0.00 0.00 0.00 0.00 0.00 0.00 0.00 0.00 0.00 0.00 0.00 0.00 0.00 0.00 0.00 0.00 0.00 0.00 0.00 0.00 0.01 0.01 0.01 0.01 0.01 0.02 0.02 0.03 0.03 0.04 0.04 0.04 0.04 0.04 0.04 0.03 0.03 0.02
0.00 0.00 0.00 0.00 0.00 0.00 0.00 0.00 0.00 0.00 0.00 0.00 0.00 0.00 0.00 0.00 0.00 0.00 0.00 0.00 0.00 0.00 0.00 0.00 0.00 0.01 0.01 0.01 0.01 0.01 0.01 0.02 0.02 0.03 0.04 0.04 0.04 0.05 0.05 0.04 0.04 0.03 0.03 0.02
0.00 0.00 0.00 0.00 0.00 0.00 0.00 0.00 0.00 0.00 0.00 0.00 0.00 0.00 0.00 0.00 0.00 0.00 0.00 0.00 0.00 0.00 0.00 0.00 0.01 0.01 0.01 0.01 0.01 0.01 0.02 0.02 0.03 0.04 0.04 0.04 0.04 0.04 0.04 0.04 0.03 0.03 0.02 0.02
0.00 0.00 0.00 0.00 0.00 0.00 0.00 0.00 0.00 0.00 0.00 0.00 0.00 0.00 0.00 0.00 0.00 0.00 0.00 0.00 0.00 0.00 0.00 0.00 0.01 0.01 0.01 0.01 0.01 0.02 0.02 0.03 0.04 0.05 0.05 0.05 0.04 0.04 0.03 0.03 0.02 0.02 0.02 0.01
0.00 0.00 0.00 0.00 0.00 0.00 0.00 0.00 0.00 0.00 0.00 0.00 0.00 0.00 0.00 0.00 0.00 0.00 0.00 0.00 0.00 0.00 0.00 0.00 0.01 0.01 0.01 0.01 0.02 0.02 0.03 0.03 0.04 0.04 0.04 0.03 0.03 0.03 0.02 0.02 0.02 0.02 0.02 0.01
0.00 0.00 0.00 0.00 0.00 0.00 0.00 0.00 0.00 0.00 0.00 0.00 0.00 0.00 0.00 0.00 0.00 0.00 0.00 0.00 0.00 0.00 0.00 0.01 0.01 0.01 0.01 0.02 0.02 0.02 0.03 0.03 0.03 0.03 0.02 0.02 0.02 0.02 0.02 0.01 0.01 0.01 0.01 0.01
MSLP
1015.78 1015.55 1015.30 1015.02 1014.72 1014.40 1014.06 1013.68 1013.27 1012.84 1012.40 1011.99 1011.63 1011.33 1011.12 1010.97 1010.89 1010.84 1010.79 1010.70 1010.56 1010.35 1010.08 1009.77 1009.44 1009.11 1008.83 1008.59 1008.40 1008.26 1008.15 1008.03 1007.90 1007.73 1007.52 1007.27 1007.00 1006.73 1006.48 1006.26 1006.11 1006.03 1006.03 1006.11
1015.89 1015.52 1015.09 1014.64 1014.18 1013.74 1013.32 1012.94 1012.58 1012.26 1011.98 1011.73 1011.53 1011.37 1011.24 1011.14 1011.05 1010.96 1010.84 1010.68 1010.48 1010.24 1009.96 1009.67 1009.38 1009.10 1008.86 1008.65 1008.47 1008.31 1008.15 1007.98 1007.78 1007.53 1007.24 1006.92 1006.59 1006.25 1005.93 1005.65 1005.42 1005.27 1005.19 1005.19
1016.00 1015.54 1014.99 1014.40 1013.82 1013.27 1012.79 1012.38 1012.04 1011.79 1011.60 1011.46 1011.36 1011.29 1011.22 1011.15 1011.05 1010.92 1010.76 1010.56 1010.34 1010.09 1009.82 1009.56 1009.32 1009.09 1008.88 1008.69 1008.50 1008.31 1008.10 1007.86 1007.58 1007.26 1006.90 1006.52 1006.14 1005.75 1005.40 1005.08 1004.81 1004.60 1004.46 1004.40
1016.07 1015.56 1014.95 1014.28 1013.62 1013.00 1012.45 1012.01 1011.67 1011.43 1011.28 1011.19 1011.14 1011.11 1011.07 1011.00 1010.90 1010.75 1010.57 1010.36 1010.13 1009.90 1009.67 1009.45 1009.24 1009.05 1008.86 1008.66 1008.45 1008.21 1007.93 1007.61 1007.25 1006.86 1006.45 1006.03 1005.62 1005.23 1004.86 1004.54 1004.25 1004.02 1003.85 1003.74
1016.02 1015.51 1014.89 1014.21 1013.51 1012.86 1012.28 1011.80 1011.44 1011.19 1011.03 1010.95 1010.90 1010.87 1010.83 1010.76 1010.65 1010.50 1010.32 1010.12 1009.91 1009.71 1009.51 1009.32 1009.14 1008.96 1008.77 1008.54 1008.27 1007.96 1007.61 1007.21 1006.78 1006.33 1005.88 1005.45 1005.04 1004.66 1004.32 1004.01 1003.74 1003.51 1003.33 1003.19
1015.80 1015.33 1014.75 1014.10 1013.42 1012.77 1012.18 1011.69 1011.30 1011.03 1010.85 1010.74 1010.68 1010.62 1010.57 1010.49 1010.38 1010.23 1010.07 1009.89 1009.71 1009.53 1009.36 1009.19 1009.01 1008.82 1008.59 1008.31 1007.98 1007.59 1007.15 1006.67 1006.18 1005.69 1005.22 1004.79 1004.41 1004.07 1003.78 1003.51 1003.28 1003.07 1002.88 1002.72
1015.40 1014.99 1014.48 1013.89 1013.27 1012.66 1012.10 1011.61 1011.22 1010.92 1010.72 1010.58 1010.48 1010.41 1010.33 1010.24 1010.13 1010.00 1009.85 1009.70 1009.54 1009.38 1009.22 1009.04 1008.85 1008.62 1008.33 1007.98 1007.57 1007.10 1006.59 1006.05 1005.51 1005.00 1004.53 1004.13 1003.78 1003.49 1003.24 1003.03 1002.83 1002.64 1002.45 1002.27
1014.85 1014.51 1014.08 1013.58 1013.03 1012.49 1011.98 1011.53 1011.15 1010.85 1010.62 1010.46 1010.34 1010.25 1010.16 1010.06 1009.95 1009.83 1009.70 1009.55 1009.40 1009.25 1009.07 1008.87 1008.64 1008.35 1007.99 1007.57 1007.09 1006.55 1005.98 1005.40 1004.84 1004.32 1003.87 1003.49 1003.18 1002.94 1002.74 1002.56 1002.39 1002.21 1002.01 1001.80
1014.24 1013.96 1013.60 1013.19 1012.74 1012.27 1011.83 1011.42 1011.08 1010.79 1010.56 1010.39 1010.26 1010.15 1010.05 1009.95 1009.85 1009.73 1009.60 1009.45 1009.29 1009.11 1008.90 1008.66 1008.36 1008.01 1007.59 1007.10 1006.56 1005.97 1005.37 1004.77 1004.21 1003.71 1003.27 1002.92 1002.65 1002.43 1002.25 1002.09 1001.92 1001.73 1001.51 1001.26
1013.68 1013.43 1013.13 1012.80 1012.43 1012.05 1011.68 1011.34 1011.03 1010.76 1010.54 1010.37 1010.24 1010.12 1010.02 1009.91 1009.80 1009.67 1009.52 1009.35 1009.16 1008.94 1008.68 1008.38 1008.02 1007.60 1007.13 1006.59 1006.01 1005.41 1004.80 1004.21 1003.66 1003.18 1002.77 1002.43 1002.17 1001.95 1001.77 1001.59 1001.39 1001.16 1000.90 1000.61
1013.25 1013.02 1012.77 1012.50 1012.21 1011.90 1011.59 1011.30 1011.03 1010.79 1010.59 1010.42 1010.28 1010.15 1010.04 1009.91 1009.78 1009.62 1009.45 1009.23 1008.99 1008.71 1008.38 1008.01 1007.59 1007.12 1006.61 1006.05 1005.46 1004.86 1004.27 1003.71 1003.19 1002.73 1002.33 1002.00 1001.72 1001.48 1001.25 1001.02 1000.77 1000.49 1000.17 999.84
1013.04 1012.82 1012.60 1012.38 1012.13 1011.88 1011.62 1011.37 1011.13 1010.90 1010.71 1010.53 1010.38 1010.23 1010.09 1009.94 1009.76 1009.56 1009.33 1009.06 1008.74 1008.39 1008.00 1007.56 1007.09 1006.58 1006.04 1005.47 1004.90 1004.33 1003.78 1003.25 1002.76 1002.32 1001.92 1001.57 1001.25 1000.95 1000.66 1000.35 1000.03 999.67 999.30 998.92
1013.04 1012.83 1012.64 1012.44 1012.24 1012.02 1011.79 1011.56 1011.33 1011.11 1010.90 1010.71 1010.52 1010.34 1010.16 1009.96 1009.73 1009.47 1009.17 1008.82 1008.43 1008.00 1007.53 1007.04 1006.52 1005.98 1005.43 1004.88 1004.34 1003.80 1003.28 1002.79 1002.33 1001.89 1001.48 1001.09 1000.71 1000.33 999.95 999.55 999.14 998.72 998.30 997.89
1013.20 1013.02 1012.85 1012.68 1012.51 1012.31 1012.09 1011.86 1011.62 1011.38 1011.15 1010.92 1010.69 1010.47 1010.22 1009.96 1009.66 1009.33 1008.95 1008.52 1008.05 1007.55 1007.02 1006.47 1005.91 1005.35 1004.80 1004.27 1003.75 1003.25 1002.76 1002.30 1001.84 1001.39 1000.95 1000.50 1000.04 999.58 999.10 998.62 998.13 997.65 997.19 996.77
1013.44 1013.29 1013.16 1013.02 1012.86 1012.67 1012.46 1012.21 1011.95 1011.68 1011.41 1011.13 1010.85 1010.56 1010.26 1009.92 1009.55 1009.14 1008.68 1008.18 1007.63 1007.06 1006.47 1005.87 1005.29 1004.71 1004.16 1003.64 1003.14 1002.66 1002.19 1001.73 1001.26 1000.79 1000.29 999.78 999.24 998.69 998.13 997.56 997.01 996.49 996.01 995.59
1013.65 1013.55 1013.46 1013.35 1013.20 1013.02 1012.80 1012.54 1012.25 1011.94 1011.62 1011.29 1010.95 1010.59 1010.22 1009.82 1009.38 1008.90 1008.37 1007.80 1007.20 1006.57 1005.93 1005.29 1004.67 1004.08 1003.52 1003.00 1002.50 1002.02 1001.55 1001.07 1000.58 1000.06 999.51 998.92 998.31 997.68 997.05 996.43 995.83 995.29 994.82 994.42
1013.75 1013.70 1013.65 1013.56 1013.44 1013.26 1013.02 1012.74 1012.42 1012.07 1011.70 1011.32 1010.93 1010.52 1010.09 1009.64 1009.14 1008.60 1008.02 1007.40 1006.74 1006.07 1005.39 1004.72 1004.08 1003.47 1002.89 1002.35 1001.84 1001.34 1000.84 1000.33 999.80 999.23 998.62 997.97 997.29 996.61 995.92 995.27 994.66 994.12 993.66 993.31
1013.67 1013.67 1013.65 1013.59 1013.48 1013.30 1013.05 1012.74 1012.40 1012.01 1011.61 1011.19 1010.75 1010.30 1009.84 1009.34 1008.81 1008.23 1007.62 1006.96 1006.28 1005.57 1004.87 1004.17 1003.50 1002.86 1002.26 1001.69 1001.15 1000.62 1000.08 999.53 998.94 998.32 997.66 996.96 996.24 995.52 994.82 994.15 993.55 993.03 992.62 992.31
1013.40 1013.44 1013.45 1013.40 1013.28 1013.09 1012.83 1012.51 1012.14 1011.73 1011.30 1010.85 1010.39 1009.92 1009.43 1008.92 1008.37 1007.78 1007.15 1006.48 1005.78 1005.06 1004.34 1003.62 1002.93 1002.27 1001.63 1001.03 1000.44 999.86 999.28 998.68 998.05 997.39 996.69 995.96 995.22 994.50 993.80 993.15 992.58 992.10 991.73 991.47
1012.99 1013.03 1013.04 1012.99 1012.86 1012.66 1012.38 1012.04 1011.65 1011.23 1010.79 1010.33 1009.86 1009.39 1008.89 1008.38 1007.83 1007.24 1006.61 1005.95 1005.24 1004.52 1003.79 1003.06 1002.35 1001.66 1000.99 1000.35 999.72 999.10 998.47 997.83 997.16 996.47 995.76 995.03 994.30 993.59 992.91 992.30 991.78 991.35 991.03 990.82
1012.47 1012.51 1012.50 1012.42 1012.27 1012.05 1011.75 1011.39 1010.99 1010.56 1010.12 1009.66 1009.20 1008.73 1008.25 1007.74 1007.21 1006.63 1006.02 1005.36 1004.67 1003.95 1003.22 1002.48 1001.75 1001.03 1000.33 999.66 998.99 998.33 997.67 997.00 996.32 995.62 994.91 994.20 993.50 992.83 992.20 991.65 991.17 990.80 990.53 990.37
1011.91 1011.91 1011.86 1011.75 1011.57 1011.32 1011.00 1010.63 1010.23 1009.80 1009.36 1008.91 1008.47 1008.01 1007.55 1007.06 1006.54 1005.99 1005.39 1004.75 1004.07 1003.36 1002.62 1001.88 1001.13 1000.40 999.67 998.97 998.27 997.59 996.91 996.23 995.54 994.86 994.17 993.50 992.84 992.23 991.67 991.17 990.76 990.44 990.22 990.10
1011.33 1011.28 1011.19 1011.04 1010.83 1010.54 1010.21 1009.84 1009.43 1009.01 1008.58 1008.15 1007.73 1007.30 1006.85 1006.39 1005.89 1005.35 1004.77 1004.15 1003.47 1002.77 1002.03 1001.28 1000.52 999.77 999.03 998.30 997.59 996.89 996.21 995.53 994.86 994.20 993.56 992.93 992.34 991.79 991.30 990.87 990.53 990.26 990.09 990.00
1010.76 1010.66 1010.52 1010.33 1010.08 1009.78 1009.44 1009.06 1008.67 1008.26 1007.85 1007.45 1007.04 1006.63 1006.21 1005.76 1005.28 1004.76 1004.19 1003.58 1002.91 1002.20 1001.47 1000.71 999.95 999.18 998.43 997.69 996.97 996.27 995.59 994.93 994.29 993.67 993.07 992.51 991.98 991.50 991.08 990.72 990.43 990.22 990.09 990.03
1010.18 1010.04 1009.86 1009.64 1009.37 1009.06 1008.71 1008.35 1007.97 1007.59 1007.20 1006.83 1006.44 1006.06 1005.65 1005.22 1004.76 1004.24 1003.68 1003.07 1002.41 1001.70 1000.96 1000.20 999.43 998.66 997.90 997.16 996.44 995.75 995.08 994.45 993.84 993.26 992.72 992.22 991.75 991.34 990.98 990.68 990.44 990.27 990.17 990.14
1009.58 1009.40 1009.20 1008.96 1008.68 1008.37 1008.04 1007.70 1007.34 1006.99 1006.63 1006.28 1005.93 1005.56 1005.18 1004.76 1004.31 1003.81 1003.25 1002.64 1001.98 1001.28 1000.54 999.78 999.01 998.24 997.48 996.74 996.03 995.35 994.70 994.09 993.52 992.98 992.49 992.04 991.63 991.27 990.97 990.72 990.52 990.39 990.31 990.30
1008.94 1008.74 1008.52 1008.28 1008.00 1007.71 1007.40 1007.08 1006.76 1006.44 1006.12 1005.79 1005.47 1005.12 1004.76 1004.36 1003.92 1003.42 1002.88 1002.28 1001.63 1000.93 1000.20 999.45 998.69 997.93 997.17 996.45 995.75 995.08 994.46 993.87 993.33 992.83 992.38 991.97 991.61 991.30 991.03 990.82 990.65 990.54 990.48 990.47
Thickness
5625 5630 5629 5627 5627 5626 5618 5616 5609 5619 5623 5631 5631 5627 5624 5619 5615 5611 5608 5604 5600 5593 5588 5585 5581 5577 5572 5567 5562 5556 5550 5544 5539 5536 5533 5529 5525 5522 5518 5515 5511 5506 5501 5497
5614 5620 5620 5622 5628 5626 5623 5622 5619 5619 5621 5628 5626 5620 5614 5608 5603 5600 5598 5594 5589 5583 5578 5573 5568 5564 5559 5553 5547 5541 5535 5530 5527 5523 5520 5516 5512 5509 5506 5503 5499 5495 5491 5486
5598 5610 5607 5609 5628 5628 5626 5628 5622 5613 5617 5618 5613 5606 5600 5596 5593 5590 5587 5582 5577 5571 5566 5561 5556 5551 5544 5540 5534 5527 5522 5518 5514 5511 5507 5504 5501 5498 5494 5491 5487 5483 5480 5475
5584 5590 5578 5614 5637 5632 5625 5622 5619 5614 5611 5607 5601 5597 5593 5588 5583 5577 5573 5569 5564 5558 5553 5547 5543 5537 5531 5525 5518 5512 5508 5505 5502 5498 5495 5492 5489 5486 5483 5480 5476 5473 5469 5465
5573 5573 5588 5615 5623 5618 5610 5608 5611 5605 5600 5596 5593 5586 5581 5578 5571 5564 5559 5554 5549 5543 5538 5533 5527 5521 5514 5508 5503 5498 5494 5493 5490 5486 5483 5480 5477 5475 5472 5469 5467 5463 5459 5455
5568 5561 5566 5603 5605 5606 5596 5587 5593 5590 5584 5579 5573 5558 5562 5562 5557 5551 5546 5540 5534 5529 5523 5517 5511 5504 5497 5493 5489 5486 5484 5482 5479 5474 5471 5469 5467 5465 5462 5458 5456 5452 5449 5444
5559 5556 5572 5600 5594 5591 5574 5573 5579 5577 5570 5564 5554 5547 5549 5547 5542 5535 5530 5524 5518 5511 5504 5498 5491 5485 5480 5478 5475 5475 5473 5469 5466 5462 5458 5457 5455 5453 5449 5446 5443 5440 5437 5433
5557 5552 5562 5588 5582 5573 5569 5572 5569 5563 5557 5551 5545 5541 5537 5532 5526 5519 5513 5507 5500 5492 5486 5478 5471 5466 5465 5464 5463 5461 5458 5455 5452 5449 5446 5445 5442 5440 5436 5433 5430 5427 5423 5420
5569 5568 5581 5579 5574 5569 5564 5558 5553 5546 5541 5536 5530 5525 5520 5515 5508 5502 5495 5487 5480 5472 5466 5461 5455 5449 5448 5450 5449 5447 5444 5441 5438 5436 5433 5430 5428 5426 5424 5420 5416 5413 5409 5407
5563 5570 5571 5568 5563 5557 5550 5543 5538 5531 5525 5519 5512 5507 5501 5495 5488 5481 5475 5466 5459 5452 5448 5446 5442 5438 5435 5436 5434 5432 5430 5428 5425 5422 5421 5419 5415 5412 5410 5407 5403 5400 5397 5395
5550 5554 5554 5553 5545 5539 5534 5527 5521 5515 5508 5500 5494 5488 5481 5475 5468 5461 5454 5447 5440 5433 5431 5431 5431 5429 5425 5423 5421 5419 5417 5415 5412 5409 5408 5408 5405 5402 5399 5397 5392 5389 5386 5382
5538 5538 5532 5530 5525 5520 5514 5508 5502 5495 5490 5483 5476 5470 5464 5457 5449 5442 5436 5430 5425 5421 5419 5420 5419 5418 5415 5412 5409 5406 5405 5403 5400 5399 5398 5396 5395 5396 5393 5389 5388 5384 5380 5376
5526 5522 5516 5512 5507 5501 5495 5490 5484 5477 5471 5465 5460 5452 5446 5438 5432 5426 5420 5416 5413 5411 5410 5409 5408 5407 5405 5401 5398 5395 5392 5392 5391 5389 5388 5386 5385 5385 5386 5385 5380 5376 5372 5368
5510 5504 5499 5493 5487 5484 5479 5474 5468 5461 5455 5449 5442 5436 5429 5423 5418 5413 5408 5405 5404 5403 5401 5399 5398 5396 5394 5391 5388 5385 5384 5383 5382 5381 5379 5378 5377 5375 5373 5372 5372 5369 5364 5360
5491 5484 5479 5476 5472 5467 5461 5455 5449 5443 5438 5432 5426 5419 5413 5409 5405 5403 5400 5397 5396 5395 5392 5389 5388 5387 5385 5382 5379 5378 5376 5375 5374 5373 5372 5371 5369 5367 5365 5363 5361 5360 5357 5352
5471 5466 5462 5457 5453 5448 5442 5436 5430 5426 5421 5416 5411 5406 5401 5397 5395 5394 5392 5389 5386 5384 5381 5379 5379 5379 5377 5374 5372 5371 5370 5370 5369 5368 5367 5366 5363 5361 5359 5356 5354 5351 5348 5344
5451 5447 5443 5438 5433 5429 5423 5417 5412 5409 5405 5401 5398 5395 5392 5390 5389 5388 5385 5381 5376 5374 5372 5371 5372 5372 5370 5367 5365 5365 5364 5365 5364 5363 5361 5360 5357 5355 5352 5349 5347 5344 5341 5338
5437 5432 5427 5422 5416 5412 5408 5404 5399 5396 5393 5391 5389 5387 5384 5381 5379 5377 5375 5374 5371 5369 5367 5366 5365 5365 5364 5361 5360 5359 5359 5360 5359 5358 5357 5354 5352 5349 5346 5343 5340 5338 5335 5332
5422 5418 5413 5409 5403 5399 5395 5392 5390 5388 5385 5383 5380 5378 5374 5371 5368 5367 5365 5363 5362 5363 5364 5362 5362 5360 5358 5357 5357 5356 5355 5355 5355 5354 5352 5351 5348 5344 5341 5338 5335 5333 5330 5327
5408 5404 5400 5396 5392 5387 5385 5385 5383 5382 5379 5375 5370 5368 5366 5364 5360 5358 5357 5356 5354 5355 5357 5357 5357 5355 5354 5353 5353 5352 5351 5351 5351 5350 5349 5346 5344 5341 5338 5335 5332 5329 5326 5322
5394 5391 5388 5385 5384 5383 5381 5378 5375 5374 5371 5365 5360 5358 5357 5356 5354 5351 5350 5353 5354 5352 5352 5353 5351 5350 5350 5350 5350 5349 5348 5348 5347 5346 5344 5342 5339 5337 5335 5332 5329 5326 5322 5318
5383 5382 5380 5379 5378 5377 5375 5370 5366 5363 5361 5358 5354 5351 5349 5349 5348 5347 5345 5345 5348 5349 5349 5347 5346 5346 5347 5348 5347 5346 5345 5344 5343 5342 5340 5338 5335 5333 5331 5328 5325 5323 5319 5314
5377 5375 5373 5371 5369 5367 5366 5362 5358 5355 5353 5351 5348 5345 5344 5344 5342 5341 5344 5345 5343 5344 5344 5343 5343 5345 5346 5345 5344 5343 5342 5341 5340 5339 5337 5334 5332 5329 5327 5324 5322 5319 5315 5311
5368 5366 5363 5360 5357 5355 5356 5356 5352 5350 5347 5346 5343 5341 5339 5339 5340 5338 5337 5339 5339 5339 5339 5339 5340 5342 5342 5341 5340 5340 5339 5339 5338 5336 5333 5331 5328 5325 5323 5321 5318 5315 5311 5307
5357 5355 5353 5350 5348 5349 5349 5348 5346 5344 5342 5342 5340 5338 5335 5333 5333 5334 5334 5334 5334 5334 5334 5335 5337 5338 5337 5337 5337 5337 5337 5336 5335 5333 5330 5327 5324 5322 5320 5317 5314 5311 5308 5304
5347 5347 5347 5346 5344 5343 5342 5340 5340 5339 5337 5337 5337 5334 5332 5330 5329 5329 5329 5329 5329 5330 5330 5331 5332 5333 5334 5335 5334 5335 5334 5333 5331 5328 5326 5323 5321 5319 5316 5313 5310 5307 5303 5300
5340 5339 5339 5338 5338 5336 5335 5334 5333 5333 5331 5330 5330 5330 5327 5326 5325 5324 5324 5325 5325 5325 5326 5327 5328 5329 5330 5331 5331 5331 5331 5330 5328 5325 5323 5320 5317 5315 5312 5309 5306 5303 5299 5296